Вернуться в каталог

YAOGAN-39 05B

АктивенВоенныеVLEO
NORAD 58558·PAYLOAD·🇨🇳 China

Запущен Dec 10, 2023 с Xichang Satellite Launch Center

Loading…

Ближайшие Пролёты (ближайшие 24 часа)

TLE

СвежийSource: Space-Track

Эпоха: Sep 14, 2026, 09:51 UTC

1 58558U 23194B   26257.41067321  .00003541  00000-0  17841-3 0  9993
2 58558  34.9915 245.0783 0011067 351.5015   8.5508 15.16629174153656

Отслеживайте YAOGAN-39 05B в реальном времени с AllMySat

Download on the App Store